THY75A LTAC-OTHH

Flight info

Callsign THY75A
Flight time 2h 7m
Altitude 39000
Route BALAX L605 BADOX UT243 GEM UG8 EZS UT36 RENGI UT253 OTKEP UM688 RATVO M688 KEDIM DCT SISIN M688 SIDAD P975 LONOS L703 HAYYA
Aircraft A20N/M-SDE2E3FGHIRWXY/LB1

Departure

Time 2026-05-04 17:09
Airport Esenboğa International Airport (LTAC)

Arrival

Time 2026-05-04 19:16
Airport Hamad International Airport (OTHH)
Time Latitude Longitude Altitude Speed Heading
2026-05-04 16:41 40.13439 32.99535 3134 ft 0 kts 128°
2026-05-04 17:00 40.13437 32.99539 3134 ft 0 kts 128°
2026-05-04 17:00 40.13447 32.99520 3107 ft 2 kts 134°
2026-05-04 17:01 40.13460 32.99510 3135 ft 2 kts 195°
2026-05-04 17:01 40.13462 32.99509 3135 ft 0 kts 213°
2026-05-04 17:04 40.13424 32.99474 3134 ft 16 kts 216°
2026-05-04 17:04 40.13371 32.99422 3132 ft 7 kts 226°
2026-05-04 17:05 40.13336 32.99441 3132 ft 12 kts 122°
2026-05-04 17:05 40.13255 32.99525 3127 ft 13 kts 191°
2026-05-04 17:06 40.13180 32.99462 3124 ft 19 kts 216°
2026-05-04 17:06 40.13096 32.99369 3123 ft 46 kts 223°
2026-05-04 17:07 40.12770 32.99074 3116 ft 46 kts 185°
2026-05-04 17:07 40.12714 32.99092 3115 ft 13 kts 136°
2026-05-04 17:07 40.12691 32.99147 3115 ft 4 kts 105°
2026-05-04 17:07 40.12693 32.99193 3116 ft 20 kts 82°
2026-05-04 17:08 40.12732 32.99262 3119 ft 5 kts 39°
2026-05-04 17:08 40.12805 32.99340 3121 ft 51 kts 38°
2026-05-04 17:08 40.13007 32.99539 3125 ft 95 kts 35°
2026-05-04 17:09 40.13343 32.99846 3135 ft 141 kts 34°
2026-05-04 17:09 40.14086 33.00531 3627 ft 165 kts 32°
2026-05-04 17:09 40.15043 33.01493 4433 ft 184 kts 36°
2026-05-04 17:10 40.16890 33.03553 6553 ft 159 kts 36°
2026-05-04 17:10 40.19177 33.06006 9673 ft 127 kts 37°
2026-05-04 17:11 40.19905 33.06653 10436 ft 126 kts 27°
2026-05-04 17:11 40.20727 33.07061 11121 ft 128 kts 13°
2026-05-04 17:11 40.22202 33.08215 12421 ft 129 kts 65°
2026-05-04 17:12 40.22294 33.09381 12938 ft 139 kts 101°
2026-05-04 17:12 40.21188 33.12151 13296 ft 212 kts 124°
2026-05-04 17:13 40.18166 33.17065 13854 ft 233 kts 128°
2026-05-04 17:14 40.15184 33.22141 16069 ft 241 kts 126°
2026-05-04 17:14 40.14185 33.23919 16790 ft 244 kts 126°
2026-05-04 17:14 40.12144 33.27581 18035 ft 259 kts 125°
2026-05-04 17:15 40.11029 33.29583 18326 ft 286 kts 125°
2026-05-04 17:15 40.08487 33.34133 19051 ft 333 kts 126°
2026-05-04 17:16 40.05614 33.39249 20180 ft 360 kts 127°
2026-05-04 17:16 40.01084 33.47292 22411 ft 381 kts 126°
2026-05-04 17:17 39.99494 33.50089 23154 ft 386 kts 128°
2026-05-04 17:17 39.92749 33.55817 24972 ft 404 kts 167°
2026-05-04 17:18 39.89947 33.56387 25488 ft 411 kts 172°
2026-05-04 17:18 39.84163 33.56872 26578 ft 421 kts 176°
2026-05-04 17:19 39.78272 33.57531 27562 ft 430 kts 166°
2026-05-04 17:19 39.72771 33.60620 28618 ft 434 kts 147°
2026-05-04 17:20 39.67735 33.65098 29456 ft 444 kts 140°
2026-05-04 17:20 39.63088 33.70371 30317 ft 450 kts 140°
2026-05-04 17:20 39.60530 33.72705 30847 ft 451 kts 146°
2026-05-04 17:21 39.55189 33.76969 31754 ft 453 kts 148°
2026-05-04 17:21 39.49895 33.81310 31860 ft 451 kts 143°
2026-05-04 17:22 39.45007 33.86392 31864 ft 450 kts 137°
2026-05-04 17:23 39.35672 33.97152 31869 ft 449 kts 126°
2026-05-04 17:23 39.32908 34.04283 31861 ft 445 kts 103°
2026-05-04 17:24 39.32315 34.08193 31866 ft 444 kts 97°
2026-05-04 17:25 39.31040 34.24058 31856 ft 444 kts 95°
2026-05-04 17:26 39.29828 34.39907 31851 ft 445 kts 95°
2026-05-04 17:27 39.28181 34.59848 31868 ft 449 kts 96°
2026-05-04 17:27 39.27509 34.67877 32745 ft 448 kts 96°
2026-05-04 17:28 39.26835 34.75883 33655 ft 449 kts 96°
2026-05-04 17:29 39.25807 34.87950 34767 ft 450 kts 97°
2026-05-04 17:29 39.24769 34.99993 35901 ft 449 kts 97°
2026-05-04 17:30 39.23725 35.11954 36912 ft 449 kts 97°
2026-05-04 17:31 39.23019 35.19968 37578 ft 449 kts 97°
2026-05-04 17:31 39.21954 35.31933 38568 ft 446 kts 98°
2026-05-04 17:32 39.21635 35.35488 38769 ft 446 kts 98°
2026-05-04 17:33 39.20708 35.45755 38831 ft 447 kts 98°
2026-05-04 17:34 39.19470 35.59305 38836 ft 447 kts 98°
2026-05-04 17:35 39.18148 35.73582 38846 ft 449 kts 98°
2026-05-04 17:36 39.17658 35.78823 38855 ft 448 kts 98°
2026-05-04 17:36 39.17424 35.81325 38854 ft 448 kts 98°
2026-05-04 17:37 39.17179 35.83926 38890 ft 447 kts 98°
2026-05-04 17:37 39.16865 35.87209 38850 ft 443 kts 96°
2026-05-04 17:38 39.16648 35.89670 38851 ft 441 kts 97°
2026-05-04 17:38 39.16396 35.92449 38860 ft 435 kts 100°
2026-05-04 17:39 39.15639 36.01191 38862 ft 440 kts 92°
2026-05-04 17:39 39.15349 36.05099 38776 ft 441 kts 89°
2026-05-04 17:40 39.16261 36.08433 35186 ft 469 kts 28°
2026-05-04 17:40 39.21199 36.11907 33914 ft 488 kts 23°
2026-05-04 17:40 39.25148 36.14419 33584 ft 469 kts 20°
2026-05-04 17:40 39.27151 36.15539 33380 ft 462 kts 18°
2026-05-04 17:41 39.30134 36.17030 33027 ft 457 kts 19°
2026-05-04 17:41 39.33123 36.18447 32663 ft 457 kts 19°
2026-05-04 17:41 39.36106 36.19861 32364 ft 458 kts 22°
2026-05-04 17:41 39.40388 36.23555 32834 ft 456 kts 44°
2026-05-04 17:42 39.44044 36.30143 33858 ft 452 kts 66°
2026-05-04 17:42 39.45575 36.37942 34556 ft 449 kts 88°
2026-05-04 17:42 39.44921 36.45923 35284 ft 445 kts 103°
2026-05-04 17:42 39.43448 36.53676 36030 ft 443 kts 106°
2026-05-04 17:43 39.41905 36.61270 36710 ft 443 kts 106°
2026-05-04 17:43 39.40363 36.69079 37397 ft 442 kts 105°
2026-05-04 17:43 39.38889 36.76692 38018 ft 442 kts 105°
2026-05-04 17:43 39.37397 36.84410 38612 ft 442 kts 105°
2026-05-04 17:44 39.35892 36.92155 38854 ft 446 kts 105°
2026-05-04 17:44 39.34378 36.99914 38858 ft 445 kts 106°
2026-05-04 17:44 39.31342 37.15385 38849 ft 444 kts 106°
2026-05-04 17:45 39.28292 37.30805 38858 ft 444 kts 107°
2026-05-04 17:45 39.25212 37.46261 38865 ft 445 kts 107°
2026-05-04 17:46 39.22112 37.61707 38856 ft 445 kts 107°
2026-05-04 17:46 39.18985 37.77161 38861 ft 445 kts 107°
2026-05-04 17:47 39.10680 38.17688 38871 ft 445 kts 107°
2026-05-04 17:47 38.97723 38.79423 38915 ft 447 kts 108°
2026-05-04 17:48 38.88423 39.22665 38901 ft 448 kts 109°
2026-05-04 17:48 38.85055 39.38075 38905 ft 448 kts 110°
2026-05-04 17:49 38.81698 39.53367 38920 ft 448 kts 110°
2026-05-04 17:49 38.78296 39.68754 38926 ft 448 kts 110°
2026-05-04 17:50 38.74880 39.84109 38935 ft 448 kts 110°
2026-05-04 17:50 38.71441 39.99454 38940 ft 449 kts 110°
2026-05-04 17:51 38.67968 40.14842 38945 ft 450 kts 110°
2026-05-04 17:51 38.64479 40.30208 38946 ft 450 kts 111°
2026-05-04 17:52 38.60958 40.45604 38954 ft 451 kts 111°
2026-05-04 17:52 38.57411 40.61011 38949 ft 452 kts 112°
2026-05-04 17:53 38.53091 40.79642 38935 ft 452 kts 112°
2026-05-04 17:53 38.45665 41.10436 38937 ft 448 kts 121°
2026-05-04 17:54 38.34915 41.38789 38949 ft 447 kts 122°
2026-05-04 17:54 38.24140 41.67249 38957 ft 446 kts 122°
2026-05-04 17:55 38.13305 41.95610 38967 ft 445 kts 122°
2026-05-04 17:55 38.02388 42.23921 38979 ft 445 kts 123°
2026-05-04 17:56 37.91363 42.52253 38981 ft 448 kts 124°
2026-05-04 17:56 37.79494 42.79673 38982 ft 445 kts 130°
2026-05-04 17:57 37.66625 43.06398 38981 ft 453 kts 130°
2026-05-04 17:57 37.53554 43.33424 38975 ft 451 kts 130°
2026-05-04 17:58 37.40392 43.60395 38950 ft 452 kts 130°
2026-05-04 17:58 37.27239 43.87126 38953 ft 454 kts 131°
2026-05-04 17:59 37.18313 43.95752 38961 ft 383 kts 182°
2026-05-04 17:59 37.07808 43.98177 38939 ft 421 kts 153°
2026-05-04 17:59 36.90895 44.15099 38932 ft 361 kts 205°
2026-05-04 18:00 36.81757 44.10294 38924 ft 375 kts 188°
2026-05-04 18:00 36.72141 44.17461 38777 ft 427 kts 151°
2026-05-04 18:00 36.64247 44.21871 38928 ft 379 kts 189°
2026-05-04 18:00 36.59025 44.22191 38922 ft 395 kts 174°
2026-05-04 18:01 36.53777 44.24498 38911 ft 402 kts 171°
2026-05-04 18:01 36.43209 44.29170 38916 ft 402 kts 172°
2026-05-04 18:02 36.27241 44.35653 38922 ft 402 kts 172°
2026-05-04 18:02 36.16615 44.39947 38919 ft 402 kts 173°
2026-05-04 18:03 36.06050 44.44203 38920 ft 402 kts 173°
2026-05-04 18:03 35.95395 44.48485 38916 ft 402 kts 173°
2026-05-04 18:04 35.84755 44.52747 38916 ft 403 kts 173°
2026-05-04 18:05 35.68810 44.59114 38921 ft 402 kts 173°
2026-05-04 18:05 35.58236 44.63323 38918 ft 401 kts 173°
2026-05-04 18:06 35.42337 44.69627 38922 ft 400 kts 174°
2026-05-04 18:06 35.31756 44.73808 38927 ft 399 kts 174°
2026-05-04 18:07 35.21258 44.77944 38928 ft 399 kts 174°
2026-05-04 18:07 35.01638 44.85643 38924 ft 400 kts 174°
2026-05-04 18:08 34.80451 44.93913 38917 ft 402 kts 174°
2026-05-04 18:08 34.59191 45.02173 38905 ft 401 kts 174°
2026-05-04 18:09 34.16967 45.18440 38905 ft 400 kts 174°
2026-05-04 18:10 33.95729 45.26556 38898 ft 401 kts 174°
2026-05-04 18:10 33.74425 45.34658 38903 ft 401 kts 174°
2026-05-04 18:11 33.53330 45.42636 38904 ft 401 kts 174°
2026-05-04 18:11 33.32000 45.50661 38895 ft 402 kts 174°
2026-05-04 18:12 33.10609 45.58671 38867 ft 403 kts 175°
2026-05-04 18:12 32.89154 45.66662 38866 ft 405 kts 175°
2026-05-04 18:13 32.78999 45.73305 38838 ft 455 kts 144°
2026-05-04 18:13 32.69815 45.82565 38856 ft 418 kts 169°
2026-05-04 18:13 32.53734 46.04566 38822 ft 459 kts 147°
2026-05-04 18:14 32.43253 46.08105 38838 ft 383 kts 190°
2026-05-04 18:14 32.33440 46.14378 38843 ft 479 kts 129°
2026-05-04 18:14 32.27692 46.28881 38829 ft 471 kts 141°
2026-05-04 18:15 32.07533 46.40524 38826 ft 483 kts 127°
2026-05-04 18:15 31.91594 46.59417 38819 ft 384 kts 191°
2026-05-04 18:15 31.86811 46.60100 38820 ft 413 kts 171°
2026-05-04 18:16 31.84226 46.61813 38818 ft 443 kts 153°
2026-05-04 18:16 31.82006 46.64468 38820 ft 464 kts 141°
2026-05-04 18:16 31.79988 46.67470 38807 ft 470 kts 140°
2026-05-04 18:17 31.73749 46.75541 38812 ft 457 kts 149°
2026-05-04 18:17 31.68982 46.80381 38810 ft 450 kts 153°
2026-05-04 18:18 31.54454 46.94128 38807 ft 450 kts 153°
2026-05-04 18:18 31.48865 46.99451 38802 ft 450 kts 153°
2026-05-04 18:19 31.41564 47.06395 38796 ft 451 kts 153°
2026-05-04 18:19 31.36728 47.10987 38793 ft 451 kts 153°
2026-05-04 18:20 31.31851 47.15608 38789 ft 451 kts 153°
2026-05-04 18:20 31.26976 47.20221 38788 ft 451 kts 153°
2026-05-04 18:21 31.22133 47.24792 38785 ft 450 kts 153°
2026-05-04 18:21 31.17260 47.29389 38782 ft 450 kts 153°
2026-05-04 18:22 31.12395 47.33974 38780 ft 450 kts 153°
2026-05-04 18:22 31.07526 47.38557 38774 ft 449 kts 153°
2026-05-04 18:23 31.02674 47.43121 38779 ft 448 kts 153°
2026-05-04 18:23 30.97859 47.47642 38779 ft 447 kts 153°
2026-05-04 18:24 30.93014 47.52183 38768 ft 447 kts 153°
2026-05-04 18:24 30.88179 47.56711 38773 ft 445 kts 153°
2026-05-04 18:25 30.83382 47.61197 38774 ft 445 kts 153°
2026-05-04 18:25 30.78552 47.65706 38772 ft 445 kts 153°
2026-05-04 18:26 30.73718 47.70213 38772 ft 445 kts 153°
2026-05-04 18:26 30.68884 47.74716 38773 ft 445 kts 153°
2026-05-04 18:27 30.64078 47.79187 38746 ft 445 kts 153°
2026-05-04 18:27 30.59246 47.83677 38768 ft 444 kts 153°
2026-05-04 18:28 30.54420 47.88154 38769 ft 444 kts 153°
2026-05-04 18:28 30.49591 47.92627 38757 ft 444 kts 153°
2026-05-04 18:29 30.43376 47.98377 38743 ft 444 kts 153°
2026-05-04 18:29 30.33725 48.07285 38697 ft 444 kts 153°
2026-05-04 18:30 29.83226 48.53143 38673 ft 425 kts 161°
2026-05-04 18:30 29.62399 48.60589 38810 ft 429 kts 171°
2026-05-04 18:31 29.50440 48.70427 41047 ft 430 kts 144°
2026-05-04 18:31 29.48449 48.73127 40296 ft 462 kts 138°
2026-05-04 18:31 29.40905 48.78845 38665 ft 388 kts 186°
2026-05-04 18:31 29.37160 48.78925 38398 ft 386 kts 186°
2026-05-04 18:32 29.34482 48.79666 38428 ft 415 kts 170°
2026-05-04 18:32 29.24803 48.86016 38824 ft 446 kts 160°
2026-05-04 18:32 29.01868 48.99303 38842 ft 419 kts 167°
2026-05-04 18:33 28.67016 49.19410 38834 ft 425 kts 165°
2026-05-04 18:33 28.61715 49.22450 38785 ft 423 kts 165°
2026-05-04 18:33 28.59148 49.23946 38768 ft 408 kts 165°
2026-05-04 18:34 28.56666 49.25396 38777 ft 393 kts 165°
2026-05-04 18:34 28.54279 49.26784 38777 ft 378 kts 166°
2026-05-04 18:34 28.51985 49.28144 38776 ft 368 kts 162°
2026-05-04 18:35 28.47866 49.31413 38785 ft 350 kts 157°
2026-05-04 18:35 28.45974 49.33076 38767 ft 336 kts 157°
2026-05-04 18:35 28.44189 49.34684 38759 ft 319 kts 158°
2026-05-04 18:35 28.42503 49.36215 38725 ft 300 kts 159°
2026-05-04 18:36 28.40898 49.37662 38736 ft 298 kts 159°
2026-05-04 18:36 28.39264 49.39101 38737 ft 297 kts 160°
2026-05-04 18:36 28.37617 49.40524 38712 ft 298 kts 160°
2026-05-04 18:36 28.35924 49.41964 38306 ft 317 kts 160°
2026-05-04 18:37 28.34058 49.43489 37611 ft 341 kts 158°
2026-05-04 18:37 28.32107 49.45136 37335 ft 355 kts 156°
2026-05-04 18:37 28.30129 49.46877 37216 ft 363 kts 155°
2026-05-04 18:38 28.27768 49.48996 37260 ft 370 kts 154°
2026-05-04 18:38 28.23682 49.52659 37458 ft 379 kts 154°
2026-05-04 18:39 28.19468 49.56386 37646 ft 388 kts 155°
2026-05-04 18:39 28.17324 49.58268 37749 ft 393 kts 155°
2026-05-04 18:39 28.15144 49.60178 37875 ft 397 kts 155°
2026-05-04 18:39 28.11263 49.63579 38208 ft 401 kts 155°
2026-05-04 18:40 28.06840 49.67457 38598 ft 403 kts 155°
2026-05-04 18:40 28.02426 49.71312 38790 ft 410 kts 154°
2026-05-04 18:40 27.97842 49.75296 38799 ft 423 kts 154°
2026-05-04 18:40 27.93100 49.79421 38797 ft 436 kts 154°
2026-05-04 18:41 27.88213 49.83676 38798 ft 450 kts 153°
2026-05-04 18:41 27.78209 49.92406 38792 ft 452 kts 153°
2026-05-04 18:42 27.68246 50.01050 38795 ft 451 kts 152°
2026-05-04 18:42 27.58326 50.09623 38795 ft 452 kts 152°
2026-05-04 18:43 27.48348 50.18233 38796 ft 451 kts 152°
2026-05-04 18:43 27.38380 50.26811 38796 ft 451 kts 152°
2026-05-04 18:44 27.28395 50.35386 38796 ft 451 kts 152°
2026-05-04 18:44 27.18401 50.43947 38785 ft 451 kts 152°
2026-05-04 18:45 27.08390 50.52503 38794 ft 452 kts 152°
2026-05-04 18:45 26.98366 50.61052 38798 ft 452 kts 151°
2026-05-04 18:46 26.81314 50.75548 38783 ft 452 kts 151°
2026-05-04 18:46 26.61248 50.92535 38796 ft 452 kts 151°
2026-05-04 18:47 26.41832 51.08899 38787 ft 451 kts 151°
2026-05-04 18:47 26.36413 51.13455 38784 ft 450 kts 150°
2026-05-04 18:48 26.32022 51.18559 38213 ft 473 kts 124°
2026-05-04 18:48 26.30839 51.22010 37592 ft 486 kts 105°
2026-05-04 18:48 26.29943 51.25602 36817 ft 478 kts 120°
2026-05-04 18:48 26.28728 51.29096 35927 ft 491 kts 107°
2026-05-04 18:49 26.28197 51.32847 35040 ft 502 kts 100°
2026-05-04 18:49 26.27407 51.36639 34140 ft 502 kts 115°
2026-05-04 18:49 26.25774 51.40042 33244 ft 496 kts 131°
2026-05-04 18:49 26.23474 51.42838 32379 ft 488 kts 143°
2026-05-04 18:50 26.20891 51.45280 31578 ft 485 kts 148°
2026-05-04 18:50 26.18083 51.47313 30756 ft 478 kts 157°
2026-05-04 18:50 26.15055 51.48782 29934 ft 471 kts 167°
2026-05-04 18:50 26.11900 51.49598 28908 ft 464 kts 178°
2026-05-04 18:51 26.08699 51.49743 27836 ft 458 kts 188°
2026-05-04 18:51 26.05618 51.49008 26833 ft 451 kts 204°
2026-05-04 18:51 26.02923 51.47341 26178 ft 437 kts 220°
2026-05-04 18:51 26.00882 51.44941 25864 ft 419 kts 237°
2026-05-04 18:52 25.99983 51.43087 25791 ft 405 kts 248°
2026-05-04 18:52 25.99379 51.40117 25785 ft 390 kts 266°
2026-05-04 18:52 25.99574 51.37116 25790 ft 388 kts 274°
2026-05-04 18:52 25.99481 51.34144 25787 ft 386 kts 257°
2026-05-04 18:53 25.98440 51.31407 25787 ft 387 kts 238°
2026-05-04 18:53 25.95849 51.28700 25788 ft 394 kts 212°
2026-05-04 18:53 25.94136 51.27889 25785 ft 400 kts 200°
2026-05-04 18:53 25.91333 51.27526 25791 ft 410 kts 182°
2026-05-04 18:54 25.88488 51.27750 25752 ft 412 kts 180°
2026-05-04 18:54 25.85631 51.27989 25624 ft 411 kts 180°
2026-05-04 18:54 25.82776 51.28169 25429 ft 409 kts 181°
2026-05-04 18:54 25.79931 51.28334 24662 ft 412 kts 180°
2026-05-04 18:55 25.77060 51.28581 23653 ft 423 kts 176°
2026-05-04 18:55 25.71389 51.30818 21186 ft 450 kts 148°
2026-05-04 18:55 25.69017 51.33133 19946 ft 459 kts 137°
2026-05-04 18:56 25.66547 51.35364 18937 ft 455 kts 152°
2026-05-04 18:56 25.63673 51.36584 18596 ft 433 kts 170°
2026-05-04 18:56 25.60757 51.36760 18357 ft 409 kts 188°
2026-05-04 18:56 25.58106 51.35916 18113 ft 388 kts 208°
2026-05-04 18:57 25.56006 51.34175 17859 ft 370 kts 229°
2026-05-04 18:57 25.54565 51.31880 17605 ft 358 kts 239°
2026-05-04 18:57 25.53268 51.29527 17348 ft 357 kts 238°
2026-05-04 18:57 25.51917 51.27219 17091 ft 357 kts 237°
2026-05-04 18:58 25.50506 51.24958 16844 ft 357 kts 235°
2026-05-04 18:58 25.49063 51.22737 16587 ft 356 kts 234°
2026-05-04 18:58 25.47598 51.20536 16349 ft 355 kts 234°
2026-05-04 18:58 25.46122 51.18346 16104 ft 354 kts 234°
2026-05-04 18:59 25.44641 51.16167 15861 ft 353 kts 234°
2026-05-04 18:59 25.43183 51.14030 15798 ft 353 kts 234°
2026-05-04 18:59 25.41703 51.11866 15795 ft 352 kts 234°
2026-05-04 18:59 25.40174 51.09752 15795 ft 353 kts 228°
2026-05-04 19:00 25.38236 51.08075 15796 ft 356 kts 209°
2026-05-04 19:00 25.35901 51.07244 15662 ft 351 kts 190°
2026-05-04 19:00 25.33467 51.07093 15195 ft 349 kts 180°
2026-05-04 19:00 25.31090 51.07567 14724 ft 348 kts 161°
2026-05-04 19:01 25.29019 51.08922 14271 ft 348 kts 139°
2026-05-04 19:01 25.27558 51.11023 13810 ft 345 kts 116°
2026-05-04 19:01 25.26912 51.13539 13330 ft 341 kts 94°
2026-05-04 19:01 25.26838 51.16143 12762 ft 338 kts 88°
2026-05-04 19:02 25.26884 51.18779 11860 ft 348 kts 86°
2026-05-04 19:02 25.26944 51.21491 10945 ft 358 kts 86°
2026-05-04 19:02 25.26988 51.24241 10296 ft 358 kts 88°
2026-05-04 19:02 25.26707 51.26942 9932 ft 350 kts 99°
2026-05-04 19:03 25.26195 51.29509 9815 ft 332 kts 101°
2026-05-04 19:03 25.25682 51.31893 9802 ft 316 kts 101°
2026-05-04 19:03 25.25177 51.34226 9789 ft 311 kts 101°
2026-05-04 19:03 25.24677 51.36551 9327 ft 312 kts 100°
2026-05-04 19:04 25.24177 51.38888 8755 ft 314 kts 100°
2026-05-04 19:04 25.23675 51.41234 8303 ft 311 kts 100°
2026-05-04 19:04 25.23182 51.43530 8044 ft 305 kts 100°
2026-05-04 19:04 25.22693 51.45815 7803 ft 304 kts 100°
2026-05-04 19:05 25.22131 51.48067 7591 ft 305 kts 106°
2026-05-04 19:05 25.21305 51.50221 7393 ft 306 kts 115°
2026-05-04 19:05 25.20155 51.52211 7195 ft 308 kts 126°
2026-05-04 19:05 25.18711 51.53953 6994 ft 309 kts 136°
2026-05-04 19:06 25.17055 51.55418 6821 ft 309 kts 147°
2026-05-04 19:06 25.15140 51.56474 6639 ft 308 kts 157°
2026-05-04 19:06 25.13162 51.57371 6481 ft 307 kts 160°
2026-05-04 19:06 25.11077 51.57812 6322 ft 306 kts 175°
2026-05-04 19:07 25.08954 51.58040 6164 ft 307 kts 176°
2026-05-04 19:07 25.06831 51.58206 5992 ft 302 kts 177°
2026-05-04 19:07 25.04772 51.58354 5828 ft 290 kts 178°
2026-05-04 19:07 25.02796 51.58494 5674 ft 279 kts 177°
2026-05-04 19:08 25.00881 51.58629 5356 ft 276 kts 177°
2026-05-04 19:08 24.98931 51.58798 4698 ft 287 kts 171°
2026-05-04 19:08 24.96968 51.59396 3954 ft 298 kts 158°
2026-05-04 19:08 24.95152 51.60477 3582 ft 292 kts 140°
2026-05-04 19:09 24.93836 51.62076 3452 ft 273 kts 116°
2026-05-04 19:09 24.93285 51.63973 3324 ft 251 kts 89°
2026-05-04 19:09 24.93522 51.65792 3198 ft 234 kts 63°
2026-05-04 19:09 24.94459 51.67189 3085 ft 225 kts 35°
2026-05-04 19:10 24.95778 51.68104 2966 ft 224 kts 25°
2026-05-04 19:10 24.97166 51.68886 2846 ft 224 kts 24°
2026-05-04 19:10 24.98555 51.69648 2728 ft 224 kts 24°
2026-05-04 19:10 24.99951 51.70419 2612 ft 224 kts 24°
2026-05-04 19:11 25.01336 51.71190 2503 ft 223 kts 23°
2026-05-04 19:11 25.02756 51.71852 2361 ft 220 kts 12°
2026-05-04 19:11 25.04260 51.71926 2286 ft 217 kts 348°
2026-05-04 19:11 25.05706 51.71445 2279 ft 218 kts 340°
2026-05-04 19:12 25.07091 51.70840 2359 ft 206 kts 339°
2026-05-04 19:12 25.11201 51.68991 2004 ft 183 kts 339°
2026-05-04 19:12 25.12377 51.68472 1998 ft 182 kts 339°
2026-05-04 19:13 25.13555 51.67954 2000 ft 183 kts 339°
2026-05-04 19:13 25.14741 51.67433 1998 ft 183 kts 339°
2026-05-04 19:13 25.15926 51.66912 1994 ft 183 kts 339°
2026-05-04 19:13 25.17115 51.66391 1822 ft 184 kts 339°
2026-05-04 19:14 25.18299 51.65870 1794 ft 183 kts 338°
2026-05-04 19:14 25.19482 51.65350 1614 ft 184 kts 339°
2026-05-04 19:14 25.20662 51.64832 1508 ft 181 kts 339°
2026-05-04 19:14 25.21673 51.64388 1382 ft 183 kts 339°
2026-05-04 19:15 25.22312 51.64108 1171 ft 185 kts 339°
2026-05-04 19:15 25.23519 51.63590 772 ft 191 kts 339°
2026-05-04 19:15 25.24755 51.63017 480 ft 193 kts 335°
2026-05-04 19:15 25.26003 51.62450 237 ft 192 kts 340°
2026-05-04 19:16 25.27201 51.61963 42 ft 176 kts 338°
2026-05-04 19:16 25.28093 51.61512 27 ft 112 kts 12°
2026-05-04 19:16 25.28341 51.61431 23 ft 0 kts 65°
2026-05-04 19:17 25.28341 51.61432 23 ft 0 kts 65°